Overview Statistics Trail Chart Weather Telemetry Raw packets
 

This is the latest recevied weather packets stored in our database for station/object W4UWO. If no packets are shown the sender has not sent any weather packets the latest 10 day(s).

<< 20 21 22 23 24 25 26 >>
Time Temp. Humidity Pressure Rain* Wind** Luminosity Snow
1788483894 32.22° C 59% 1016.1 hPa 0 mm - 0 W/m² -
1788483589 32.22° C 58% 1016.1 hPa 0 mm - 0 W/m² -
1788483285 32.78° C 56% 1016.1 hPa 0 mm - 0 W/m² -
1788482985 32.78° C 55% 1016 hPa 0 mm - 0 W/m² -
1788482682 32.78° C 55% 1016 hPa 0 mm - 0 W/m² -
1788482381 33.33° C 54% 1016 hPa 0 mm - 0 W/m² -
1788482077 33.33° C 54% 1015.9 hPa 0 mm - 0 W/m² -
1788481772 33.33° C 53% 1015.8 hPa 0 mm - 0 W/m² -
1788481469 33.89° C 52% 1015.7 hPa 0 mm - 1 W/m² -
1788481167 33.89° C 51% 1015.7 hPa 0 mm - 2 W/m² -
1788480863 34.44° C 50% 1015.6 hPa 0 mm - 3 W/m² -
1788480558 35° C 48% 1015.6 hPa 0 mm - 5 W/m² -
1788480257 35.56° C 44% 1015.6 hPa 0 mm - 8 W/m² -
1788479952 35.56° C 43% 1015.5 hPa 0 mm - 11 W/m² -
1788479649 35.56° C 43% 1015.5 hPa 0 mm - 15 W/m² -
1788479348 36.11° C 41% 1015.6 hPa 0 mm - 19 W/m² -
1788479044 36.67° C 40% 1015.7 hPa 0 mm - 25 W/m² -
1788478740 36.67° C 39% 1015.6 hPa 0 mm - 30 W/m² -
1788478436 37.22° C 38% 1015.5 hPa 0 mm - 36 W/m² -
1788478135 37.78° C 38% 1015.7 hPa 0 mm - 46 W/m² -
1788477831 37.78° C 38% 1015.4 hPa 0 mm - 57 W/m² -
1788477530 37.78° C 37% 1015.3 hPa 0 mm - 65 W/m² -
1788477225 37.22° C 38% 1015.3 hPa 0 mm - 79 W/m² -
1788476921 37.22° C 38% 1015.1 hPa 0 mm - 93 W/m² -
1788476616 37.22° C 38% 1015.1 hPa 0 mm - 101 W/m² -

* Rain latest hour (hover to see other rain measurements)
** Current wind speed in m/s (hover to see current wind gust speed)